Location: Newark
(43.0000°N, 1.6781°W)
Time: 08:48:22
(UTC+00:00)

Vanguard 1 - Pass Details

Date: 26 April 2021
Orbit: 649 x 3834 km, 34.2° (Epoch: 04 May)

Event Time Altitude Azimuth Distance (km) Brightness Sun altitude
Rises 21:11:23 0° 275° (W) 7,789 15.4 -20.8°
Reaches altitude 10° 21:24:42 10° 245° (WSW) 6,927 14.6 -22.4°
Maximum altitude 21:28:32 11° 236° (SW) 6,813 14.4 -22.9°
Drops below altitude 10° 21:32:19 10° 226° (SW) 6,768 14.3 -23.4°
Sets 21:44:48 0° 194° (SSW) 7,136 14.1 -24.8°
